| time (UTC) | temp C | wind direction | speed KPH | gust KPH | rain 1hr cm | rain 24hr cm | rain mn cm | humidity % | barometer mb |
| 20260906093316 | 22 | 188 | 0.0 | 0.0 | 0.00 | 0.05 | 0.00 | ||
| 20260906092813 | 23 | 188 | 0.0 | 0.0 | 0.00 | 0.05 | 0.00 | ||
| 20260906091812 | 22 | 188 | 0.0 | 0.0 | 0.00 | 0.05 | 0.00 | ||
| 20260906091313 | 23 | 188 | 0.0 | 0.0 | 0.00 | 0.05 | 0.00 | ||
| 20260906090313 | 23 | 188 | 0.0 | 0.0 | 0.00 | 0.05 | 0.00 | ||
| 20260906085809 | 23 | 188 | 0.0 | 0.0 | 0.00 | 0.05 | 0.00 | ||
| 20260906085310 | 23 | 188 | 0.0 | 0.0 | 0.00 | 0.05 | 0.00 | ||
| 20260906084807 | 23 | 188 | 0.0 | 0.0 | 0.00 | 0.05 | 0.00 | ||
| 20260906084308 | 23 | 188 | 0.0 | 0.0 | 0.00 | 0.05 | 0.00 | ||
| 20260906083806 | 23 | 188 | 0.0 | 0.0 | 0.00 | 0.05 | 0.00 | ||
| 20260906083308 | 23 | 188 | 0.0 | 0.0 | 0.00 | 0.05 | 0.00 | ||
| 20260906082804 | 23 | 188 | 0.0 | 0.0 | 0.00 | 0.05 | 0.00 | ||
| 20260906082306 | 22 | 188 | 0.0 | 0.0 | 0.00 | 0.05 | 0.00 | ||
| 20260906081802 | 23 | 188 | 0.0 | 0.0 | 0.00 | 0.05 | 0.00 | ||
| 20260906081303 | 23 | 188 | 0.0 | 0.0 | 0.00 | 0.05 | 0.00 | ||
| 20260906080802 | 23 | 188 | 0.0 | 0.0 | 0.00 | 0.05 | 0.00 | ||
| 20260906074800 | 23 | 188 | 0.0 | 0.0 | 0.00 | 0.05 | 0.00 | ||
| 20260906074301 | 23 | 188 | 0.0 | 0.0 | 0.00 | 0.05 | 0.00 | ||
| 20260906073759 | 23 | 188 | 0.0 | 0.0 | 0.00 | 0.05 | 0.00 | ||
| 20260906072759 | 23 | 290 | 0.0 | 0.0 | 0.00 | 0.05 | 0.00 | ||
| 20260906071756 | 23 | 308 | 1.6 | 3.2 | 0.00 | 0.05 | 0.00 | ||
| 20260906070756 | 23 | 46 | 0.0 | 0.0 | 0.00 | 0.05 | 0.00 | ||
| 20260906065754 | 23 | 46 | 0.0 | 0.0 | 0.00 | 0.05 | 0.00 | ||
| 20260906065256 | 23 | 46 | 0.0 | 0.0 | 0.00 | 0.05 | 0.00 | ||
| 20260906064752 | 23 | 46 | 0.0 | 0.0 | 0.00 | 0.05 | 0.00 | ||
| 20260906063751 | 23 | 46 | 0.0 | 0.0 | 0.00 | 0.05 | 0.00 | ||
| 20260906063252 | 23 | 46 | 0.0 | 0.0 | 0.00 | 0.00 | 0.05 | ||
| 20260906062249 | 24 | 46 | 0.0 | 0.0 | 0.00 | 0.00 | 0.05 | ||
| 20260906061745 | 24 | 46 | 0.0 | 0.0 | 0.00 | 0.00 | 0.05 | ||
| 20260906061247 | 24 | 46 | 0.0 | 0.0 | 0.00 | 0.00 | 0.05 | ||
| 20260906060745 | 24 | 46 | 0.0 | 0.0 | 0.00 | 0.00 | 0.05 | ||
| 20260906060246 | 24 | 46 | 0.0 | 0.0 | 0.00 | 0.00 | 0.05 | ||
| 20260906055745 | 24 | 46 | 0.0 | 0.0 | 0.00 | 0.00 | 0.05 | ||
| 20260906055246 | 24 | 46 | 0.0 | 0.0 | 0.00 | 0.00 | 0.05 | ||
| 20260906054745 | 25 | 46 | 0.0 | 0.0 | 0.00 | 0.00 | 0.05 | ||
| 20260906052743 | 24 | 46 | 0.0 | 0.0 | 0.03 | 0.00 | 0.05 | ||
| 20260906051742 | 25 | 46 | 0.0 | 0.0 | 0.03 | 0.00 | 0.05 | ||
| 20260906051244 | 25 | 46 | 0.0 | 0.0 | 0.03 | 0.00 | 0.05 | ||
| 20260906050742 | 25 | 46 | 0.0 | 0.0 | 0.03 | 0.00 | 0.05 | ||
| 20260906050243 | 25 | 46 | 0.0 | 0.0 | 0.03 | 0.00 | 0.05 | ||
| 20260906045741 | 25 | 46 | 0.0 | 0.0 | 0.03 | 0.00 | 0.05 | ||
| 20260906045243 | 25 | 46 | 0.0 | 0.0 | 0.03 | 0.00 | 0.05 | ||
| 20260906044241 | 25 | 46 | 0.0 | 0.0 | 0.03 | 0.00 | 0.05 | ||
| 20260906043740 | 25 | 46 | 0.0 | 0.0 | 0.03 | 0.00 | 0.05 | ||
| 20260906043241 | 25 | 46 | 0.0 | 0.0 | 0.00 | 0.00 | 0.05 | ||
| 20260906042739 | 25 | 46 | 0.0 | 0.0 | 0.00 | 0.00 | 0.05 | ||
| 20260906041240 | 25 | 46 | 0.0 | 0.0 | 0.00 | 0.00 | 0.03 | ||
| 20260906040739 | 25 | 46 | 0.0 | 0.0 | 0.00 | 0.00 | 0.03 | ||
| 20260906040240 | 25 | 46 | 0.0 | 0.0 | 0.00 | 0.00 | 0.03 | ||
| 20260906035738 | 25 | 46 | 0.0 | 0.0 | 0.00 | 0.00 | 0.03 | ||
| 20260906035239 | 25 | 46 | 0.0 | 0.0 | 0.00 | 0.00 | 0.03 | ||
| 20260906034737 | 26 | 46 | 0.0 | 0.0 | 0.00 | 0.00 | 0.03 | ||
| 20260906025235 | 26 | 46 | 0.0 | 0.0 | 0.00 | 0.00 | 0.03 | ||
| 20260906024733 | 26 | 77 | 1.6 | 1.6 | 0.00 | 0.00 | 0.03 | ||
| 20260906024234 | 26 | 84 | 1.6 | 1.6 | 0.00 | 0.00 | 0.03 | ||
| 20260906022233 | 26 | 93 | 3.2 | 1.6 | 0.00 | 0.00 | 0.03 | ||
| 20260906021732 | 26 | 77 | 3.2 | 3.2 | 0.00 | 0.00 | 0.03 | ||
| 20260906021233 | 26 | 72 | 0.0 | 4.8 | 0.00 | 0.00 | 0.03 | ||
| 20260906020731 | 26 | 42 | 0.0 | 0.0 | 0.00 | 0.00 | 0.03 | ||
| 20260906014227 | 26 | 42 | 0.0 | 0.0 | 0.00 | 0.00 | 0.03 | ||
| 20260906013226 | 26 | 42 | 0.0 | 0.0 | 0.03 | 0.00 | 0.03 | ||
| 20260906011724 | 26 | 82 | 0.0 | 0.0 | 0.03 | 0.00 | 0.03 | ||
| 20260906010723 | 26 | 82 | 1.6 | 0.0 | 0.03 | 0.00 | 0.03 | ||
| 20260906005221 | 27 | 110 | 4.8 | 4.8 | 0.03 | 0.00 | 0.03 | ||
| 20260906004221 | 28 | 239 | 0.0 | 0.0 | 0.03 | 0.00 | 0.03 | ||
| 20260906002719 | 28 | 239 | 0.0 | 0.0 | 0.00 | 0.00 | 0.00 | ||
| 20260906002220 | 28 | 239 | 0.0 | 0.0 | 0.00 | 0.00 | 0.00 | ||
| 20260906001718 | 28 | 239 | 0.0 | 0.0 | 0.00 | 0.00 | 0.00 | ||
| 20260906000718 | 29 | 239 | 3.2 | 0.0 | 0.00 | 0.00 | 0.00 | ||
| 20260905234717 | 29 | 359 | 6.4 | 4.8 | 0.00 | 0.00 | 0.00 | ||
| 20260905234219 | 29 | 248 | 3.2 | 4.8 | 0.00 | 0.00 | 0.00 | ||
| 20260905232218 | 30 | 238 | 3.2 | 6.4 | 0.00 | 0.00 | 0.00 | ||
| 20260905230217 | 31 | 335 | 4.8 | 4.8 | 0.00 | 0.00 | 0.00 | ||
| 20260905225716 | 31 | 305 | 3.2 | 0.0 | 0.00 | 0.00 | 0.00 | ||
| 20260905224216 | 31 | 307 | 3.2 | 1.6 | 0.00 | 0.00 | 0.00 | ||
| 20260905222712 | 32 | 287 | 0.0 | 3.2 | 0.00 | 0.00 | 0.00 | ||
| 20260905220710 | 32 | 304 | 0.0 | 1.6 | 0.00 | 0.00 | 0.00 | ||
| 20260905220211 | 33 | 245 | 1.6 | 0.0 | 0.00 | 0.00 | 0.00 | ||
| 20260905215709 | 33 | 267 | 3.2 | 6.4 | 0.00 | 0.00 | 0.00 | ||
| 20260905214210 | 33 | 293 | 1.6 | 0.0 | 0.00 | 0.00 | 0.00 | ||
| 20260905213207 | 33 | 295 | 3.2 | 3.2 | 0.00 | 0.00 | 0.00 | ||
| 20260905212206 | 32 | 242 | 0.0 | 0.0 | 0.00 | 0.00 | 0.00 | ||
| 20260905211206 | 33 | 242 | 0.0 | 0.0 | 0.00 | 0.00 | 0.00 | ||
| 20260905210200 | 33 | 180 | 0.0 | 0.0 | 0.00 | 0.00 | 0.00 | ||
| 20260905205657 | 33 | 184 | 0.0 | 1.6 | 0.00 | 0.00 | 0.00 | ||
| 20260905204655 | 33 | 295 | 0.0 | 0.0 | 0.00 | 0.00 | 0.00 | ||
| 20260905204156 | 33 | 295 | 0.0 | 0.0 | 0.00 | 0.00 | 0.00 | ||
| 20260905203654 | 33 | 145 | 0.0 | 0.0 | 0.00 | 0.00 | 0.00 | ||
| 20260905203155 | 33 | 113 | 0.0 | 1.6 | 0.00 | 0.00 | 0.00 | ||
| 20260905202653 | 33 | 131 | 1.6 | 3.2 | 0.00 | 0.00 | 0.00 | ||
| 20260905195651 | 33 | 115 | 1.6 | 1.6 | 0.00 | 0.00 | 0.00 | ||
| 20260905195153 | 33 | 153 | 3.2 | 1.6 | 0.00 | 0.00 | 0.00 | ||
| 20260905194651 | 33 | 93 | 6.4 | 6.4 | 0.00 | 0.00 | 0.00 | ||
| 20260905192650 | 33 | 87 | 3.2 | 3.2 | 0.00 | 0.00 | 0.00 | ||
| 20260905192151 | 33 | 55 | 0.0 | 0.0 | 0.00 | 0.00 | 0.00 | ||
| 20260905191650 | 33 | 83 | 3.2 | 1.6 | 0.00 | 0.00 | 0.00 | ||
| 20260905191151 | 33 | 108 | 6.4 | 6.4 | 0.00 | 0.00 | 0.00 | ||
| 20260905190649 | 33 | 66 | 1.6 | 1.6 | 0.00 | 0.00 | 0.00 | ||
| 20260905190151 | 34 | 129 | 6.4 | 4.8 | 0.00 | 0.00 | 0.00 | ||
| 20260905185649 | 34 | 233 | 0.0 | 0.0 | 0.00 | 0.00 | 0.00 | ||
| 20260905185150 | 34 | 243 | 0.0 | 0.0 | 0.00 | 0.00 | 0.00 | ||
| 20260905184649 | 35 | 243 | 3.2 | 0.0 | 0.00 | 0.00 | 0.00 | ||
| 20260905184150 | 34 | 191 | 4.8 | 3.2 | 0.00 | 0.00 | 0.00 | ||
| 20260905183150 | 34 | 329 | 1.6 | 0.0 | 0.00 | 0.00 | 0.00 | ||
| 20260905182648 | 34 | 243 | 1.6 | 0.0 | 0.00 | 0.00 | 0.00 | ||
| 20260905182149 | 33 | 139 | 0.0 | 1.6 | 0.00 | 0.00 | 0.00 | ||
| 20260905181149 | 33 | 97 | 1.6 | 1.6 | 0.00 | 0.00 | 0.00 | ||
| 20260905180647 | 33 | 211 | 0.0 | 0.0 | 0.00 | 0.00 | 0.00 | ||
| 20260905175645 | 33 | 359 | 1.6 | 3.2 | 0.00 | 0.00 | 0.00 | ||
| 20260905175146 | 33 | 80 | 3.2 | 1.6 | 0.00 | 0.00 | 0.00 | ||
| 20260905174644 | 33 | 249 | 1.6 | 1.6 | 0.00 | 0.00 | 0.00 | ||
| 20260905173642 | 33 | 96 | 3.2 | 1.6 | 0.00 | 0.00 | 0.00 | ||
| 20260905173143 | 33 | 91 | 0.0 | 1.6 | 0.00 | 0.00 | 0.00 | ||
| 20260905172641 | 33 | 325 | 3.2 | 1.6 | 0.00 | 0.00 | 0.00 | ||
| 20260905171640 | 33 | 257 | 1.6 | 0.0 | 0.00 | 0.00 | 0.00 | ||
| 20260905170640 | 33 | 46 | 1.6 | 0.0 | 0.00 | 0.00 | 0.00 | ||
| 20260905165639 | 32 | 100 | 1.6 | 1.6 | 0.00 | 0.00 | 0.00 | ||
| 20260905164639 | 33 | 311 | 6.4 | 3.2 | 0.00 | 0.00 | 0.00 | ||
| 20260905164140 | 33 | 329 | 4.8 | 6.4 | 0.00 | 0.00 | 0.00 | ||
| 20260905163638 | 32 | 255 | 4.8 | 4.8 | 0.00 | 0.00 | 0.00 | ||
| 20260905163139 | 32 | 219 | 1.6 | 4.8 | 0.00 | 0.00 | 0.00 | ||
| 20260905162139 | 32 | 329 | 4.8 | 4.8 | 0.00 | 0.00 | 0.00 | ||
| 20260905161637 | 32 | 359 | 3.2 | 4.8 | 0.00 | 0.00 | 0.00 | ||
| 20260905161138 | 32 | 323 | 1.6 | 6.4 | 0.00 | 0.00 | 0.00 | ||
| 20260905160637 | 32 | 231 | 3.2 | 3.2 | 0.00 | 0.00 | 0.00 | ||
| 20260905160138 | 32 | 1 | 3.2 | 6.4 | 0.00 | 0.00 | 0.00 | ||
| 20260905155636 | 32 | 197 | 4.8 | 1.6 | 0.00 | 0.00 | 0.00 | ||
| 20260905154636 | 31 | 285 | 3.2 | 11.3 | 0.00 | 0.00 | 0.00 | ||
| 20260905154137 | 31 | 326 | 3.2 | 1.6 | 0.00 | 0.00 | 0.00 | ||
| 20260905153635 | 31 | 339 | 0.0 | 6.4 | 0.00 | 0.00 | 0.00 | ||
| 20260905153136 | 31 | 238 | 3.2 | 3.2 | 0.00 | 0.00 | 0.00 | ||
| 20260905152634 | 31 | 339 | 3.2 | 4.8 | 0.00 | 0.00 | 0.00 | ||
| 20260905151634 | 31 | 1 | 3.2 | 3.2 | 0.00 | 0.00 | 0.00 | ||
| 20260905151135 | 31 | 318 | 4.8 | 3.2 | 0.00 | 0.00 | 0.00 | ||
| 20260905150135 | 31 | 3 | 3.2 | 1.6 | 0.00 | 0.00 | 0.00 | ||
| 20260905145633 | 30 | 270 | 0.0 | 0.0 | 0.00 | 0.00 | 0.00 | ||
| 20260905145134 | 30 | 252 | 8.0 | 4.8 | 0.00 | 0.00 | 0.00 | ||
| 20260905144134 | 30 | 332 | 1.6 | 1.6 | 0.00 | 0.00 | 0.00 | ||
| 20260905142630 | 29 | 277 | 4.8 | 4.8 | 0.00 | 0.00 | 0.00 | ||
| 20260905141627 | 28 | 339 | 3.2 | 1.6 | 0.00 | 0.00 | 0.00 | ||
| 20260905141128 | 28 | 3 | 6.4 | 6.4 | 0.00 | 0.00 | 0.00 | ||
| 20260905135626 | 28 | 325 | 3.2 | 4.8 | 0.00 | 0.00 | 0.00 | ||
| 20260905134128 | 27 | 248 | 4.8 | 4.8 | 0.00 | 0.00 | 0.00 | ||
| 20260905133625 | 27 | 208 | 1.6 | 0.0 | 0.00 | 0.00 | 0.00 | ||
| 20260905132625 | 27 | 297 | 3.2 | 4.8 | 0.00 | 0.00 | 0.00 | ||
| 20260905131126 | 27 | 295 | 3.2 | 4.8 | 0.00 | 0.00 | 0.00 | ||
| 20260905130101 | 24 | 332 | 0.0 | 0.0 | 0.00 | 0.00 | 0.00 | ||
| 20260905125623 | 27 | 263 | 1.6 | 0.0 | 0.00 | 0.00 | 0.00 | ||
| 20260905125124 | 26 | 198 | 0.0 | 0.0 | 0.00 | 0.00 | 0.00 | ||
| 20260905124123 | 26 | 312 | 3.2 | 1.6 | 0.00 | 0.00 | 0.00 | ||
| 20260905123620 | 26 | 318 | 0.0 | 1.6 | 0.00 | 0.00 | 0.00 | ||
| 20260905123152 | 26 | 329 | 1.6 | 4.8 | 0.00 | 0.00 | 0.00 | ||
| 20260905123121 | 26 | 329 | 1.6 | 4.8 | 0.00 | 0.00 | 0.00 | ||
| 20260905122120 | 26 | 305 | 1.6 | 0.0 | 0.00 | 0.00 | 0.00 | ||
| 20260905121618 | 26 | 308 | 0.0 | 0.0 | 0.00 | 0.00 | 0.00 | ||
| 20260905120702 | 25 | 316 | 0.0 | 0.0 | 0.00 | 0.00 | 0.00 | ||
| 20260905120616 | 25 | 316 | 0.0 | 0.0 | 0.00 | 0.00 | 0.00 | ||
| 20260905120117 | 26 | 316 | 0.0 | 0.0 | 0.00 | 0.00 | 0.00 | ||
| 20260905115737 | 25 | 316 | 0.0 | 0.0 | 0.00 | 0.00 | 0.00 | ||
| 20260905115614 | 25 | 316 | 0.0 | 0.0 | 0.00 | 0.00 | 0.00 | ||
| 20260905114613 | 25 | 316 | 0.0 | 0.0 | 0.00 | 0.00 | 0.00 | ||
| 20260905114337 | 25 | 316 | 0.0 | 0.0 | 0.00 | 0.00 | 0.00 | ||
| 20260905114115 | 25 | 316 | 0.0 | 0.0 | 0.00 | 0.00 | 0.00 | ||
| 20260905111609 | 24 | 273 | 0.0 | 0.0 | 0.00 | 0.00 | 0.00 | ||
| 20260905110605 | 23 | 318 | 0.0 | 0.0 | 0.00 | 0.00 | 0.00 | ||
| 20260905110105 | 23 | 318 | 0.0 | 0.0 | 0.00 | 0.00 | 0.00 | ||
| 20260905105602 | 23 | 332 | 0.0 | 0.0 | 0.00 | 0.00 | 0.00 | ||
| 20260905105103 | 23 | 332 | 0.0 | 0.0 | 0.00 | 0.00 | 0.00 | ||
| 20260905104102 | 23 | 332 | 0.0 | 0.0 | 0.00 | 0.00 | 0.00 | ||
| 20260905102559 | 23 | 332 | 0.0 | 0.0 | 0.00 | 0.00 | 0.00 | ||
| 20260905102100 | 23 | 332 | 0.0 | 0.0 | 0.00 | 0.00 | 0.00 | ||
| 20260905101100 | 23 | 332 | 0.0 | 0.0 | 0.00 | 0.00 | 0.00 | ||
| 20260905100059 | 23 | 332 | 0.0 | 0.0 | 0.00 | 0.00 | 0.00 | ||
| 20260905095557 | 23 | 332 | 0.0 | 0.0 | 0.00 | 0.00 | 0.00 | ||
| 20260905094555 | 23 | 332 | 0.0 | 0.0 | 0.00 | 0.00 | 0.00 | ||
| 20260905094057 | 23 | 332 | 0.0 | 0.0 | 0.00 | 0.00 | 0.00 | ||
| 20260905093554 | 23 | 332 | 0.0 | 0.0 | 0.00 | 0.00 | 0.00 |